Flag for Austria Weather past 2 weeks in Enns, Upper Austria, Austria

Now
68 °F

Partly sunny.


Feels Like: 68 °F
Forecast: 53 / 77 °F
Wind: N/A

Location: Linz / Hoersching-Flughafen

Current Time: Sep 19, 2014 at 8:18:47 PM

Latest Report: Sep 19, 2014 at 7:00 PM


Visibility: 11 mi

Pressure: 29.92 "Hg

Humidity: 69%

Dew point: 58 °F

Location of EnnsLocation

Historic Weather in Enns — Graph

°F

Enns temperature yesterday

Maximum temperature yesterday: 73 °F (at 2:00 PM)
Minimum temperature yesterday: 54 °F (at 5:00 AM)
Average temperature yesterday: 62 °F

Past Weeks' High & Low Weather Summary

 TemperatureHumidityPressure
High79 °F (Sep 8, 5:00 PM)100% (Sep 6, 12:00 AM)30.11 "Hg (Sep 6, 12:00 AM)
Low53 °F (Sep 13, 4:00 AM)43% (Sep 17, 5:00 PM)29.88 "Hg (Sep 6, 5:00 PM)
Average62 °F81%29.98 "Hg
* Reported Sep 4 7:00 PM — Sep 19 7:00 PM, Enns, Weather by CustomWeather, © 2014

Note: Actual official high and low records may vary slightly from our data, if they occured in-between our weather recording intervals... More about our weather records

Advertising

Enns weather history for previous 24 hours

 ConditionsComfort  
Time TempWeatherWind HumidityBarometerVisibility
7:00 PM
Sep 19
68 °FPartly sunny.N/A69%29.92 "Hg11 mi
6:00 PM72 °FScattered clouds.3 mph62%29.91 "Hg19 mi
5:00 PM74 °FScattered clouds.3 mph55%29.92 "Hg14 mi
4:00 PM75 °FScattered clouds.N/A50%29.93 "Hg17 mi
3:00 PM73 °FPartly sunny.3 mph59%29.93 "Hg15 mi
2:00 PM71 °FPartly sunny.N/A58%29.96 "Hg22 mi
1:00 PM69 °FPassing clouds.N/A57%29.97 "Hg15 mi
12:00 PM66 °FPassing clouds.N/A63%29.98 "Hg11 mi
11:00 AM64 °FPassing clouds.N/A66%30.01 "Hg12 mi
10:00 AM61 °FPassing clouds.N/A74%30.01 "Hg11 mi
9:00 AM60 °FScattered clouds.N/A79%30.01 "Hg9 mi
8:00 AM56 °FScattered clouds.N/A86%30.00 "Hg8 mi
7:00 AM55 °FOvercast.N/A88%30.00 "Hg7 mi
6:00 AM55 °FOvercast.N/A90%29.99 "Hg7 mi
5:00 AM54 °FPassing clouds.N/A91%29.98 "Hg7 mi
4:00 AMN/APassing clouds.9 mphN/AN/A2 mi
2:00 AM56 °FPassing clouds.N/A86%29.98 "Hg7 mi
11:00 PM
Sep 18
59 °FPassing clouds.N/A82%29.96 "Hg14 mi
10:00 PM61 °FPassing clouds.N/A77%29.96 "Hg14 mi
9:00 PM63 °FPassing clouds.N/A72%29.94 "Hg19 mi
8:00 PM65 °FPassing clouds.3 mph67%29.93 "Hg22 mi
Weather by CustomWeather, © 2014

See weather overviewHow to use our weather pages